| time (UTC) | temp F | wind direction | speed knots | gust knots | rain 1hr in | rain 24hr in | rain mn in | humidity % | barometer mb |
| 20260508114116 | 45 | 270 | 5.2 | 11.3 | 0.00 | 0.00 | 0.13 | 65 | 1006.0 |
| 20260508113608 | 45 | 270 | 7.0 | 11.3 | 0.00 | 0.00 | 0.13 | 66 | 1006.2 |
| 20260508113056 | 45 | 270 | 7.0 | 12.2 | 0.00 | 0.00 | 0.13 | 64 | 1006.0 |
| 20260508112545 | 44 | 292 | 7.8 | 12.2 | 0.00 | 0.00 | 0.13 | 64 | 1006.1 |
| 20260508112036 | 44 | 270 | 6.1 | 14.8 | 0.00 | 0.00 | 0.13 | 65 | 1005.8 |
| 20260508111526 | 45 | 247 | 7.0 | 14.8 | 0.00 | 0.00 | 0.13 | 65 | 1005.6 |
| 20260508111015 | 45 | 247 | 7.0 | 13.9 | 0.00 | 0.00 | 0.13 | 65 | 1005.7 |
| 20260508110509 | 45 | 247 | 7.0 | 13.0 | 0.00 | 0.00 | 0.13 | 64 | 1005.7 |
| 20260508105908 | 45 | 270 | 6.1 | 15.6 | 0.00 | 0.00 | 0.13 | 65 | 1005.6 |
| 20260508105349 | 45 | 270 | 7.0 | 15.6 | 0.00 | 0.00 | 0.13 | 64 | 1005.6 |
| 20260508104838 | 45 | 292 | 7.0 | 15.6 | 0.00 | 0.00 | 0.13 | 64 | 1005.6 |
| 20260508104329 | 45 | 270 | 7.0 | 13.9 | 0.00 | 0.00 | 0.13 | 63 | 1005.6 |
| 20260508103818 | 45 | 247 | 6.1 | 13.9 | 0.00 | 0.00 | 0.13 | 64 | 1005.4 |
| 20260508103309 | 45 | 247 | 7.8 | 13.9 | 0.00 | 0.00 | 0.13 | 64 | 1005.6 |
| 20260508102248 | 45 | 270 | 7.0 | 12.2 | 0.00 | 0.00 | 0.13 | 63 | 1005.5 |
| 20260508101739 | 45 | 270 | 7.0 | 13.0 | 0.00 | 0.00 | 0.13 | 63 | 1005.7 |
| 20260508100717 | 46 | 247 | 6.1 | 9.6 | 0.00 | 0.00 | 0.13 | 64 | 1005.3 |
| 20260508100208 | 46 | 247 | 7.0 | 11.3 | 0.00 | 0.00 | 0.13 | 64 | 1005.3 |
| 20260508095147 | 45 | 270 | 7.0 | 9.6 | 0.00 | 0.00 | 0.13 | 64 | 1005.1 |
| 20260508094634 | 44 | 270 | 7.0 | 12.2 | 0.00 | 0.00 | 0.13 | 63 | 1005.3 |
| 20260508094126 | 44 | 270 | 6.1 | 12.2 | 0.00 | 0.00 | 0.13 | 64 | 1004.8 |
| 20260508093618 | 44 | 247 | 7.0 | 11.3 | 0.00 | 0.00 | 0.13 | 66 | 1004.9 |
| 20260508093107 | 44 | 247 | 7.0 | 11.3 | 0.00 | 0.00 | 0.13 | 65 | 1004.9 |
| 20260508092557 | 44 | 270 | 5.2 | 9.6 | 0.00 | 0.00 | 0.13 | 66 | 1004.7 |
| 20260508092047 | 43 | 270 | 7.0 | 9.6 | 0.00 | 0.00 | 0.13 | 65 | 1004.7 |
| 20260508091536 | 44 | 247 | 5.2 | 9.6 | 0.00 | 0.00 | 0.13 | 65 | 1004.6 |
| 20260508091026 | 44 | 270 | 6.1 | 9.6 | 0.00 | 0.00 | 0.13 | 65 | 1004.5 |
| 20260508090519 | 43 | 270 | 7.0 | 9.6 | 0.00 | 0.00 | 0.13 | 65 | 1004.4 |
| 20260508090006 | 43 | 247 | 5.2 | 9.6 | 0.00 | 0.00 | 0.13 | 65 | 1004.5 |
| 20260508085456 | 44 | 270 | 4.3 | 9.6 | 0.00 | 0.00 | 0.13 | 64 | 1004.6 |
| 20260508084945 | 43 | 270 | 5.2 | 9.6 | 0.00 | 0.00 | 0.13 | 64 | 1004.6 |
| 20260508084436 | 43 | 270 | 7.0 | 9.6 | 0.00 | 0.00 | 0.13 | 64 | 1004.7 |
| 20260508083926 | 43 | 270 | 6.1 | 9.6 | 0.00 | 0.00 | 0.13 | 65 | 1004.6 |
| 20260508083415 | 43 | 270 | 4.3 | 9.6 | 0.00 | 0.00 | 0.13 | 64 | 1004.6 |
| 20260508082908 | 43 | 270 | 6.1 | 9.6 | 0.00 | 0.00 | 0.13 | 64 | 1004.7 |
| 20260508082355 | 43 | 270 | 7.0 | 9.6 | 0.00 | 0.00 | 0.13 | 64 | 1004.7 |
| 20260508081846 | 43 | 247 | 5.2 | 9.6 | 0.00 | 0.00 | 0.13 | 63 | 1004.5 |
| 20260508080310 | 43 | 270 | 4.3 | 7.8 | 0.00 | 0.00 | 0.13 | 64 | 1004.6 |
| 20260508060258 | 45 | 270 | 6.1 | 0.0 | 0.00 | 0.00 | 0.13 | 65 | 1004.9 |
| 20260508055623 | 45 | 270 | 4.3 | 12.2 | 0.00 | 0.00 | 0.13 | 66 | 1004.8 |
| 20260508055116 | 45 | 247 | 7.0 | 13.0 | 0.00 | 0.00 | 0.13 | 66 | 1004.9 |
| 20260508054212 | 45 | 225 | 7.0 | 11.3 | 0.00 | 0.00 | 0.13 | 70 | 1005.2 |
| 20260508053542 | 45 | 270 | 6.1 | 9.6 | 0.00 | 0.00 | 0.13 | 70 | 1005.2 |
| 20260508053033 | 45 | 270 | 5.2 | 9.6 | 0.00 | 0.00 | 0.13 | 72 | 1005.2 |
| 20260508052525 | 46 | 270 | 4.3 | 11.3 | 0.00 | 0.00 | 0.13 | 72 | 1005.2 |
| 20260508052015 | 46 | 270 | 4.3 | 11.3 | 0.00 | 0.00 | 0.13 | 71 | 1005.1 |
| 20260508051502 | 46 | 270 | 6.1 | 9.6 | 0.00 | 0.00 | 0.13 | 71 | 1005.1 |